Погода в Игирме

Россия / Иркутская область     56°58′54″N   103°37′39″E
темп.,
°C
ветер,
м/с
пор.,
м/с
влажн.,
%
обл.,
%
осадки,
мм/ч
давл.,
гПа
погр.,
м
19 мая, ср
ср1923:00+2всв2443100 0.0 100579
02:00−1ссв22515 0.0 100619
05:00−3с11575 0.0 100710
08:00+3с24345 0.0 1007478
11:00+8ссз35235 0.0 10062201
14:00+10ссз342132 0.0 10052473
17:00+10с342182 0.0 10042439
20:00+7ссв2532100 0.0 1004159
20 мая, чт
чт2023:00+2св2544100 0.0 1006110
02:00+1всв2958100 0.0 1006279
05:000св2665100 0.0 1007159
08:00+4св3547100 0.0 1008437
11:00+8св343236 0.0 10081737
14:00+11св34275 0.0 10072121
17:00+12св44245 0.0 10072441
20:00+10св4932100 0.0 1007540
21 мая, пт
пт2123:00+5св31146100 0.0 1009292
02:00+3св31252100 0.0 1009367
05:00+2св41454100 0.0 1008592
08:00+5св51239100 0.0 1008880
11:00+8св61025100 0.0 10061367
14:00+12ссв71019100 0.0 10051912
17:00+12ссв51024100 0.0 10062074
20:00+10с51029100 0.0 10081266
22 мая, сб
сб2223:00+8с41234100 0.0 1009686
02:00+6с31243100 0.0 1009418
05:00+4сз2955100 0.0 1010235
08:00+7ссз4949100 0.0 1011592
11:00+11ссз5932100 0.0 10112503
14:00+13ссз5730100 0.0 10102775
17:00+13сз773792 0.0 10112311
20:00+8ссз4968100 0.8 1013652
23 мая, вс
вс2323:00+3зсз118897 0.4 101410
02:00+2з22925 0.4 101534
05:00+1з119140 0.0 101610
08:00+6сз2468100 0.3 1016395
11:00+11ссз4543100 0.4 10141954
14:00+13ссз4531100 0.6 10132545
17:00+13ссз4432100 0.0 10132604
20:00+11сз364447 0.0 1014403